Date String (YYYY-MM-DD hh:mm:ss) UTC,Instrument flags,absolute air pressure of the measurement (hPa),sample flow rate (lpm),inlet stack bypass flow (lpm),air temperature of the measurement (°C),ambient temperature measured by the external sensor (°C),aerosol sample conditioner tube jacket temperature (°C),OPC LED temperature (°C),internal box temperature (°C),relative humidity of the measurement (%),span deviation,mass concentration of particles derived from Lorenz-Mie calculation of OPC scattering (μg/m³),mass concentration of particles derived from Lorenz-Mie calculation of OPC scattering (μg/m³),mass concentration of particles derived from Lorenz-Mie calculation of OPC scattering (μg/m³)
DateTimeUTC,F1_M11,P_M11,Q1_M11,Q2_M11,T1_M11,T2_M11,T3_M11,T4_M11,T5_M11,U1_M11,ZSPAN_M11,X0_M11,X2_M11,X1_M11
2023-06-27 23:00:00,SystemResetWarning,0823.8,5.01,000.00,029.3,027.5,000.0,037.6,031.0,9.4,0000.0,0006.26,0002.71,0001.98
2023-06-27 23:01:00,SystemResetWarning,0823.9,4.99,000.00,029.3,027.4,000.0,037.7,031.1,9.9,0000.0,0007.07,0002.74,0001.99
2023-06-27 23:02:00,SystemResetWarning,0824.0,4.99,000.00,029.3,025.6,000.0,037.6,031.0,9.8,0000.0,0007.47,0002.81,0002.00
2023-06-27 23:03:00,SystemResetWarning,0823.9,5.01,000.00,029.3,024.7,000.0,037.6,030.9,10.3,0000.0,0006.73,0002.82,0002.00
2023-06-27 23:04:00,SystemResetWarning,0824.0,5.01,000.00,029.3,025.2,000.0,037.5,030.8,11.1,0000.0,0007.22,0002.85,0002.00
2023-06-27 23:05:00,SystemResetWarning,0823.9,5.00,000.00,029.2,025.6,000.0,037.6,030.6,11.5,0000.0,0007.37,0002.83,0001.99
2023-06-27 23:06:00,SystemResetWarning,0823.8,5.00,000.00,029.2,026.1,000.0,037.6,030.7,10.7,0000.0,0007.40,0002.85,0002.00
2023-06-27 23:07:00,SystemResetWarning,0823.7,4.99,000.00,029.2,026.6,000.0,037.6,030.8,10.1,0000.0,0007.51,0002.85,0001.98
2023-06-27 23:08:00,SystemResetWarning,0823.7,5.02,000.00,029.2,027.1,000.0,037.6,030.9,10.4,0000.0,0008.20,0002.83,0001.96
2023-06-27 23:09:00,SystemResetWarning,0823.7,5.00,000.00,029.3,027.5,000.0,037.6,031.0,10.1,0000.0,0008.34,0002.80,0001.94
2023-06-27 23:10:00,SystemResetWarning,0823.6,4.99,000.00,029.3,027.8,000.0,037.7,031.1,9.6,0000.0,0008.36,0002.77,0001.94
2023-06-27 23:11:00,SystemResetWarning,0823.6,5.00,000.00,029.4,027.8,000.0,037.7,031.2,9.1,0000.0,0009.17,0002.75,0001.91
2023-06-27 23:12:00,SystemResetWarning,0823.6,5.00,000.00,029.4,026.0,000.0,037.6,031.0,9.1,0000.0,0009.91,0002.74,0001.91
2023-06-27 23:13:00,SystemResetWarning,0823.6,5.01,000.00,029.3,024.8,000.0,037.6,030.9,10.1,0000.0,0009.38,0002.71,0001.91
2023-06-27 23:14:00,SystemResetWarning,0823.5,5.02,000.00,029.3,025.2,000.0,037.6,030.9,9.3,0000.0,0009.39,0002.73,0001.91
2023-06-27 23:15:00,SystemResetWarning,0823.5,4.99,000.00,029.2,025.7,000.0,037.6,030.7,8.9,0000.0,0009.46,0002.75,0001.93
2023-06-27 23:16:00,SystemResetWarning,0823.7,5.00,000.00,029.2,026.2,000.0,037.6,030.7,9.5,0000.0,0010.00,0002.75,0001.93
2023-06-27 23:17:00,SystemResetWarning,0823.7,5.01,000.00,029.3,026.7,000.0,037.6,030.9,11.3,0000.0,0010.02,0002.74,0001.91
2023-06-27 23:18:00,SystemResetWarning,0823.6,4.99,000.00,029.3,027.1,000.0,037.7,030.9,12.9,0000.0,0010.05,0002.76,0001.91
2023-06-27 23:19:00,SystemResetWarning,0823.6,4.99,000.00,029.3,027.5,000.0,037.7,031.1,12.5,0000.0,0009.82,0002.76,0001.92
2023-06-27 23:20:00,SystemResetWarning,0823.6,5.00,000.00,029.4,027.6,000.0,037.7,031.2,11.6,0000.0,0009.67,0002.76,0001.92
2023-06-27 23:21:00,SystemResetWarning,0823.7,5.00,000.00,029.4,025.9,000.0,037.7,031.1,12.1,0000.0,0009.96,0002.78,0001.93
2023-06-27 23:22:00,SystemResetWarning,0823.8,5.00,000.00,029.4,024.6,000.0,037.6,031.0,12.8,0000.0,0009.28,0002.82,0001.94
2023-06-27 23:23:00,SystemResetWarning,0823.6,5.02,000.00,029.3,024.9,000.0,037.6,030.9,11.9,0000.0,0008.30,0002.87,0001.96
2023-06-27 23:24:00,SystemResetWarning,0823.7,5.00,000.00,029.2,025.4,000.0,037.6,030.7,11.5,0000.0,0008.34,0003.00,0002.06
2023-06-27 23:25:00,SystemResetWarning,0823.7,5.01,000.00,029.2,025.9,000.0,037.6,030.7,11.8,0000.0,0008.83,0003.11,0002.19
2023-06-27 23:26:00,SystemResetWarning,0823.8,4.99,000.00,029.2,026.4,000.0,037.6,030.9,11.0,0000.0,0009.01,0003.18,0002.29
2023-06-27 23:27:00,SystemResetWarning,0823.7,4.99,000.00,029.3,026.9,000.0,037.6,031.0,10.4,0000.0,0008.54,0003.20,0002.34
2023-06-27 23:28:00,SystemResetWarning,0823.8,5.00,000.00,029.3,027.4,000.0,037.7,031.0,10.6,0000.0,0009.02,0003.23,0002.40
2023-06-27 23:29:00,SystemResetWarning,0823.9,5.00,000.00,029.4,027.7,000.0,037.7,031.1,12.7,0000.0,0009.38,0003.25,0002.42
2023-06-27 23:30:00,SystemResetWarning,0823.8,5.00,000.00,029.4,027.2,000.0,037.7,031.2,11.0,0000.0,0009.30,0003.25,0002.41
2023-06-27 23:31:00,SystemResetWarning,0823.8,4.98,000.00,029.4,025.2,000.0,037.6,031.0,11.6,0000.0,0009.14,0003.25,0002.41
2023-06-27 23:32:00,SystemResetWarning,0823.7,5.02,000.00,029.4,024.8,000.0,037.6,031.0,13.4,0000.0,0009.04,0003.27,0002.43
2023-06-27 23:33:00,SystemResetWarning,0823.8,5.00,000.00,029.3,025.3,000.0,037.6,030.9,15.1,0000.0,0009.01,0003.26,0002.45
2023-06-27 23:34:00,SystemResetWarning,0823.8,5.00,000.00,029.3,025.7,000.0,037.6,030.7,15.6,0000.0,0008.96,0003.25,0002.45
2023-06-27 23:35:00,SystemResetWarning,0823.7,5.00,000.00,029.3,026.2,000.0,037.7,030.8,15.5,0000.0,0008.89,0003.22,0002.42
2023-06-27 23:36:00,SystemResetWarning,0823.7,5.00,000.00,029.3,026.7,000.0,037.7,030.9,13.7,0000.0,0008.48,0003.17,0002.37
2023-06-27 23:37:00,SystemResetWarning,0823.7,5.00,000.00,029.3,027.2,000.0,037.7,031.0,12.9,0000.0,0007.78,0003.14,0002.34
2023-06-27 23:38:00,SystemResetWarning,0823.7,4.99,000.00,029.3,027.5,000.0,037.7,031.1,12.9,0000.0,0008.05,0003.23,0002.42
2023-06-27 23:39:00,SystemResetWarning,0823.8,4.99,000.00,029.4,027.2,000.0,037.7,031.1,15.4,0000.0,0008.91,0003.35,0002.54
2023-06-27 23:40:00,SystemResetWarning,0823.8,4.99,000.00,029.4,025.2,000.0,037.7,031.0,15.8,0000.0,0009.46,0003.47,0002.69
2023-06-27 23:41:00,SystemResetWarning,0823.8,5.01,000.00,029.3,024.6,000.0,037.6,031.0,17.4,0000.0,0010.08,0003.58,0002.86
2023-06-27 23:42:00,SystemResetWarning,0823.7,5.00,000.00,029.3,025.1,000.0,037.6,030.8,15.9,0000.0,0011.36,0003.69,0003.00
2023-06-27 23:43:00,SystemResetWarning,0823.5,4.99,000.00,029.2,025.6,000.0,037.6,030.6,14.2,0000.0,0012.23,0003.78,0003.11
2023-06-27 23:44:00,SystemResetWarning,0823.6,5.00,000.00,029.2,026.1,000.0,037.6,030.7,15.7,0000.0,0012.35,0003.88,0003.18
2023-06-27 23:45:00,SystemResetWarning,0823.6,5.01,000.00,029.2,026.6,000.0,037.6,030.8,15.6,0000.0,0012.50,0003.97,0003.26
2023-06-27 23:46:00,SystemResetWarning,0823.6,5.01,000.00,029.3,027.1,000.0,037.7,030.9,14.0,0000.0,0013.57,0004.09,0003.34
2023-06-27 23:47:00,SystemResetWarning,0823.6,4.99,000.00,029.3,027.5,000.0,037.7,031.0,15.3,0000.0,0014.74,0004.19,0003.40
2023-06-27 23:48:00,SystemResetWarning,0823.6,4.99,000.00,029.3,027.7,000.0,037.7,031.1,16.0,0000.0,0015.13,0004.30,0003.49
2023-06-27 23:49:00,SystemResetWarning,0823.7,4.98,000.00,029.4,026.5,000.0,037.7,031.2,16.2,0000.0,0015.20,0004.36,0003.53
2023-06-27 23:50:00,SystemResetWarning,0823.7,5.01,000.00,029.4,024.8,000.0,037.6,031.1,16.7,0000.0,0013.97,0004.34,0003.54
2023-06-27 23:51:00,SystemResetWarning,0823.7,5.01,000.00,029.3,024.9,000.0,037.6,031.0,17.0,0000.0,0013.36,0004.30,0003.53
2023-06-27 23:52:00,SystemResetWarning,0823.7,5.00,000.00,029.3,025.3,000.0,037.6,030.7,17.1,0000.0,0012.66,0004.26,0003.54
2023-06-27 23:53:00,SystemResetWarning,0823.6,5.00,000.00,029.2,025.8,000.0,037.6,030.7,16.9,0000.0,0012.10,0004.28,0003.56
2023-06-27 23:54:00,SystemResetWarning,0823.6,5.01,000.00,029.2,026.3,000.0,037.6,030.8,17.8,0000.0,0011.47,0004.32,0003.58
2023-06-27 23:55:00,SystemResetWarning,0823.6,5.00,000.00,029.2,026.8,000.0,037.6,030.9,15.4,0000.0,0012.24,0004.38,0003.60
2023-06-27 23:56:00,SystemResetWarning,0823.6,4.99,000.00,029.3,027.2,000.0,037.7,031.0,14.4,0000.0,0014.39,0004.51,0003.61
2023-06-27 23:57:00,SystemResetWarning,0823.7,5.00,000.00,029.3,027.5,000.0,037.7,031.1,15.6,0000.0,0015.38,0004.59,0003.61
2023-06-27 23:58:00,SystemResetWarning,0823.7,4.99,000.00,029.4,027.5,000.0,037.7,031.1,16.9,0000.0,0015.44,0004.62,0003.60
2023-06-27 23:59:00,SystemResetWarning,0823.6,5.01,000.00,029.4,025.6,000.0,037.7,031.0,18.3,0000.0,0016.07,0004.69,0003.57
